"Time","Temp","Dewpoint","Humidity","Pressure","Direction","Speed","Gust","Precip","PrecipRate"
"00:04:59","66.7","64.3","92","29.92","350","0","0","0.00","0.00"
"00:09:59","66.5","64.1","92","29.92","350","0","0","0.00","0.00"
"00:14:56","66.4","64","92","29.93","350","0","0","0.00","0.00"
"00:19:56","66.4","64","92.2","29.93","350","0","0","0.00","0.00"
"00:24:56","66.3","63.9","92","29.93","350","0","0","0.00","0.00"
"00:29:56","66","63.6","92","29.93","350","0","0","0.00","0.00"
"00:34:59","65.8","63.6","92.7","29.92","350","0","0","0.00","0.00"
"00:39:57","65.7","63.6","93","29.92","350","0","0","0.00","0.00"
"00:44:57","65.6","63.5","93","29.92","350","0.1","1.2","0.00","0.00"
"00:49:56","65.6","63.7","93.6","29.92","350","0.2","2.4","0.00","0.00"
"00:54:56","65.5","63.7","94","29.92","350","0","0","0.00","0.00"
"00:59:57","65.4","63.5","93.7","29.92","350","0","1.2","0.00","0.00"
"01:04:56","65.2","63.3","93.6","29.92","350","0","0","0.00","0.00"
"01:09:59","65.1","63.1","93.3","29.92","350","0","0","0.00","0.00"
"01:14:57","65","63.2","94","29.92","350","0","0","0.00","0.00"
"01:19:56","64.9","63.1","94","29.92","350","0","0","0.00","0.00"
"01:24:40","64.9","63.1","94.2","29.92","350","0","0","0.00","0.00"
"01:29:56","64.8","63.2","94.6","29.92","350","0","0","0.00","0.00"
"01:34:56","64.7","62.9","94","29.92","350","0","0","0.00","0.00"
"01:39:57","64.6","62.8","94","29.92","350","0","0","0.00","0.00"
"01:44:57","64.4","62.6","94","29.92","350","0","0","0.00","0.00"
"01:49:57","64.3","62.6","94.5","29.91","350","0","0","0.00","0.00"
"01:54:57","64.2","62.7","95","29.91","350","0","0","0.00","0.00"
"01:59:57","64.1","62.6","95","29.91","350","0","0","0.00","0.00"
"02:04:56","64","62.5","95","29.91","350","0","0","0.00","0.00"
"02:09:59","63.9","62.4","95","29.91","350","0","0","0.00","0.00"
"02:14:57","63.9","62.4","95","29.91","350","0","0","0.00","0.00"
"02:19:57","63.8","62.3","95","29.91","350","0","0","0.00","0.00"
"02:24:56","63.7","62.2","95","29.91","350","0","0","0.00","0.00"
"02:29:57","63.6","62.1","95.1","29.91","350","0","0","0.00","0.00"
"02:34:57","63.8","62.6","96","29.91","350","0","0","0.00","0.00"
"02:39:58","63.9","62.7","96","29.91","350","0","0","0.00","0.00"
"02:44:58","64","62.8","96","29.91","350","0","0","0.00","0.00"
"02:49:58","64","62.8","96","29.91","350","0","0","0.00","0.00"
"02:54:58","64.2","63","96","29.91","350","0","0","0.00","0.00"
"02:59:58","64.4","63.3","96.3","29.91","350","0","0","0.00","0.00"
"03:04:58","64.6","63.4","96.2","29.91","350","0","0","0.00","0.00"
"03:09:57","64.7","63.5","96","29.91","350","0","0","0.00","0.00"
"03:14:59","64.8","63.6","96","29.91","350","0.1","2.4","0.00","0.00"
"03:19:58","65","63.8","96","29.91","350","0","1.2","0.00","0.00"
"03:24:58","65.2","63.8","95.5","29.91","350","0","0","0.00","0.00"
"03:29:59","65.4","63.9","95","29.91","350","0","0","0.00","0.00"
"03:34:59","65.4","63.7","94.5","29.91","350","0","0","0.00","0.00"
"03:39:56","65.3","63.5","94","29.91","350","0","0","0.00","0.00"
"03:44:56","65.2","63.4","94","29.91","350","0.1","2.4","0.00","0.00"
"03:49:56","65.1","63.3","94","29.91","350","0.2","1.2","0.00","0.00"
"03:54:56","64.9","63.1","94","29.91","350","0","0","0.00","0.00"
"03:59:56","64.7","62.9","94","29.91","350","0","0","0.00","0.00"
"04:04:58","64.6","63.1","95","29.91","350","0","0","0.00","0.00"
"04:09:58","64.5","63","95","29.91","350","0","0","0.00","0.00"
"04:14:59","64.6","63.1","95","29.91","350","0","0","0.00","0.00"
"04:19:59","64.7","63.4","95.9","29.91","350","0","0","0.00","0.00"
"04:24:59","65","63.8","96.1","29.91","350","0.2","1.2","0.00","0.00"
"04:29:59","65.3","64.1","96.1","29.92","350","0.1","1.2","0.00","0.00"
"04:34:59","65.5","64.3","96","29.92","350","0","1.2","0.00","0.00"
"04:39:57","65.6","64.4","96","29.92","350","0","0","0.00","0.00"
"04:44:57","65.8","64.6","96","29.92","350","0","0","0.00","0.00"
"04:49:57","65.9","64.7","96","29.92","350","0","0","0.00","0.00"
"04:54:57","66.1","64.9","96","29.92","350","0","0","0.00","0.00"
"04:59:57","66.3","65.1","96","29.92","350","0.2","1.2","0.00","0.00"
"05:04:56","66.5","65.3","96","29.92","350","0.2","1.2","0.00","0.00"
"05:09:59","66.7","65.3","95.3","29.92","350","0","0","0.00","0.00"
"05:14:57","66.6","65.1","95","29.94","350","0","1.2","0.00","0.00"
"05:19:56","66.6","65.1","95","29.94","350","0.1","1.2","0.00","0.00"
"05:24:56","66.6","65.1","95","29.94","336","1.1","4.8","0.00","0.00"
"05:29:56","66.8","65.3","95","29.94","326","0.5","4.8","0.00","0.00"
"05:34:59","67.2","65.6","94.8","29.94","306","1.7","4.8","0.00","0.00"
"05:39:56","67.9","66","93.8","29.94","262","1.2","3.6","0.00","0.00"
"05:44:56","68.4","66.3","93","29.94","296","2.1","6","0.00","0.00"
"05:49:56","68.9","66.4","91.7","29.94","317","2.9","7.2","0.00","0.00"
"05:54:56","69.3","66.5","90.7","29.94","320","2.5","4.8","0.00","0.00"
"05:59:59","69.5","66.4","90","29.94","322","1.8","4.8","0.00","0.00"
"06:04:58","69.5","66.3","89.8","29.94","333","2.2","6","0.00","0.00"
"06:09:58","69.5","66.1","89.2","29.94","337","2.3","6","0.00","0.00"
"06:14:59","69.5","66.1","89","29.94","330","2.4","5.8","0.00","0.00"
"06:19:58","69.4","66.3","89.9","29.94","297","1.4","3.6","0.00","0.00"
"06:24:58","69.3","66.2","90","29.94","312","1.9","6","0.00","0.00"
"06:29:58","69.2","66.1","90","29.94","326","2","8.4","0.00","0.00"
"06:34:58","69.1","66","90","29.94","323","1.3","6.9","0.00","0.00"
"06:39:59","69.1","66","90","29.94","323","1.2","3.5","0.00","0.00"
"06:44:59","68.9","65.8","90","29.95","323","1.2","4.8","0.00","0.00"
"06:49:58","68.8","65.8","90.2","29.95","329","2.5","4.8","0.00","0.00"
"06:54:58","68.7","65.9","90.7","29.95","332","1.4","4.8","0.00","0.00"
"06:59:58","68.7","66","91","29.96","330","1.2","3.6","0.00","0.00"
"07:04:57","68.5","65.8","91","29.96","328","0.6","2.4","0.00","0.00"
"07:09:56","68.5","65.8","91","29.96","326","1.2","6","0.00","0.00"
"07:14:58","68.4","65.7","91","29.96","326","0.4","2.4","0.00","0.00"
"07:19:58","68.3","65.6","91","29.96","325","0.2","2.4","0.00","0.00"
"07:24:58","68.2","65.8","91.9","29.96","325","0.1","1.2","0.00","0.00"
"07:29:58","68.2","65.8","92","29.97","325","0","1.2","0.00","0.00"
"07:34:57","68.3","65.9","92","29.97","325","0","0","0.00","0.00"
"07:39:59","68.4","66","92","29.97","325","0","0","0.00","0.00"
"07:44:58","68.4","66","92","29.98","325","0","0","0.00","0.00"
"07:49:58","68.6","66.2","92","29.98","325","0","0","0.00","0.00"
"07:54:57","68.9","66.5","92","29.98","325","0","0","0.00","0.00"
"07:59:58","69.4","66.9","91.6","29.98","325","0","1.2","0.00","0.00"
"08:04:57","70","66.8","89.7","29.98","325","0.7","3.6","0.00","0.00"
"08:09:59","70.5","67","88.7","29.98","326","0.9","2.4","0.00","0.00"
"08:14:56","70.9","67.1","87.7","29.98","326","0.8","3.6","0.00","0.00"
"08:19:56","71.2","67.1","87","29.98","326","0.2","2.4","0.00","0.00"
"08:24:59","71.5","67.2","86.3","29.98","325","0.9","3.6","0.00","0.00"
"08:29:58","71.8","67.4","86","29.98","325","1.1","3.6","0.00","0.00"
"08:34:58","72.4","67.8","85.7","29.98","325","0.2","2.4","0.00","0.00"
"08:39:59","72.9","67.8","84","29.98","325","0.4","3.6","0.00","0.00"
"08:44:58","73.4","68.1","83.6","29.98","325","1.1","6","0.00","0.00"
"08:49:57","73.9","68","81.9","29.98","326","2.8","6","0.00","0.00"
"08:54:57","74.1","68","81.3","29.98","328","1","4.8","0.00","0.00"
"08:59:56","74.5","68.2","80.8","29.98","328","0.8","3.6","0.00","0.00"
"09:04:59","74.8","67.9","79.1","29.98","331","1.9","10.8","0.00","0.00"
"09:09:58","74.6","66.9","77","29.98","341","4.1","10.4","0.00","0.00"
"09:14:56","74.6","66.7","76.6","29.98","329","3.2","8.4","0.00","0.00"
"09:19:59","74.8","67.1","77","29.98","5","0.6","2.4","0.00","0.00"
"09:24:58","75.3","66.9","75.2","29.98","351","3","8.4","0.00","0.00"
"09:29:58","75.3","66.1","73.3","29.98","339","4.2","8.4","0.00","0.00"
"09:34:57","75.3","66.1","73.2","29.98","332","4","9.6","0.00","0.00"
"09:39:58","75.3","65.8","72.6","29.98","325","4.1","12","0.00","0.00"
"09:44:57","75.4","65.9","72.5","29.99","333","4.6","12","0.00","0.00"
"09:49:56","75.6","66.3","73.2","29.99","338","3.2","8.4","0.00","0.00"
"09:54:59","75.8","66.3","72.4","29.99","328","3.1","8.1","0.00","0.00"
"09:59:58","76.1","66.7","72.6","29.99","338","3","9.6","0.00","0.00"
"10:04:56","76.5","66.9","72.2","29.99","336","3.7","7.2","0.00","0.00"
"10:09:56","76.6","66.8","71.8","29.99","351","2.7","8.4","0.00","0.00"
"10:14:57","76.7","66.5","70.6","29.99","334","5.2","15","0.00","0.00"
"10:19:56","76.7","66.2","70.2","29.99","342","4.4","15","0.00","0.00"
"10:24:59","76.9","66.8","70.8","29.99","7","2.4","12.7","0.00","0.00"
"10:29:58","77.5","66.7","69.6","29.99","336","3.1","12","0.00","0.00"
"10:34:58","77.7","66.4","68.1","29.99","349","3.5","12","0.00","0.00"
"10:39:59","78","66.6","68.1","29.99","340","4.2","12","0.00","0.00"
"10:44:58","78.3","67.2","68.9","29.99","346","3.6","11.5","0.00","0.00"
"10:49:57","78.6","67.1","67.9","29.99","334","4","10.8","0.00","0.00"
"10:54:56","78.7","65.9","65","29.99","237","3.9","10.8","0.00","0.00"
"10:59:57","78.8","65.4","63.7","29.99","344","3.6","8.4","0.00","0.00"
"11:04:56","78.9","64.3","61","29.98","309","4.5","10.8","0.00","0.00"
"11:09:57","79","64.5","61.2","29.98","333","3.6","10.8","0.00","0.00"
"11:14:59","79.3","64.1","59.8","29.98","306","4.9","13.2","0.00","0.00"
"11:19:56","79.1","63.2","58.4","29.98","328","6.8","15","0.00","0.00"
"11:24:56","79","63.8","59.9","29.98","306","4","15","0.00","0.00"
"11:29:57","79.3","64.3","60.2","29.98","288","3.3","13.2","0.00","0.00"
"11:34:58","79.6","64.1","59.3","29.98","302","5","12.7","0.00","0.00"
"11:39:56","79.6","64.3","59.6","29.98","263","3.5","8.4","0.00","0.00"
"11:44:57","79.6","63.8","58.5","29.99","305","4","10.8","0.00","0.00"
"11:49:57","79.8","63.2","57.1","29.99","271","4.1","9.6","0.00","0.00"
"11:54:58","79.8","63","56.5","29.99","280","4.9","15.6","0.00","0.00"
"11:59:59","79.8","64","58.5","29.99","302","4.3","13.2","0.00","0.00"
"12:04:58","80","63.7","57.6","29.99","262","5.1","15","0.00","0.00"
"12:09:59","80.1","63.3","56.6","29.99","304","5.7","15","0.00","0.00"
"12:14:57","79.7","62.9","56.6","29.99","334","7.6","19.6","0.00","0.00"
"12:19:57","79.7","63.2","57.2","29.99","311","6.1","18","0.00","0.00"
"12:24:58","79.7","63.3","57.3","29.99","300","5.8","18.4","0.00","0.00"
"12:29:58","79.7","63","56.8","30.00","298","5.6","12","0.00","0.00"
"12:34:58","79.8","63.8","58.2","30.00","316","5.9","15.6","0.00","0.00"
"12:39:58","80.1","64.1","58.1","30.00","313","5","16.1","0.00","0.00"
"12:44:58","80.5","64.6","58.5","30.00","306","4.6","8.4","0.00","0.00"
"12:49:58","80.7","64.7","58.4","29.98","319","4.8","15","0.00","0.00"
"12:54:58","80.7","64.5","57.9","29.98","278","4.3","15","0.00","0.00"
"12:59:59","80.9","64.1","56.8","29.98","288","5.5","16.1","0.00","0.00"
"13:04:59","80.9","63.8","56.3","29.98","329","6.2","16.1","0.00","0.00"
"13:09:59","80.8","64.1","57","29.98","332","5.3","13.2","0.00","0.00"
"13:14:58","80.9","63.9","56.4","29.98","293","5.4","14.4","0.00","0.00"
"13:19:58","80.9","63.8","56.2","29.98","315","5.9","15","0.00","0.00"
"13:24:59","81.1","64.8","57.7","29.98","316","5.1","15","0.00","0.00"
"13:29:59","81.4","64.4","56.4","29.98","292","4","8.4","0.00","0.00"
"13:34:56","81.7","64.8","56.7","29.98","344","4","15","0.00","0.00"
"13:39:58","82","64.4","55.3","29.98","288","4","15","0.00","0.00"
"13:44:59","82.2","64.5","55.2","29.98","329","4.2","17.3","0.00","0.00"
"13:49:59","82","64","54.6","29.97","309","4","12","0.00","0.00"
"13:54:56","82.3","64.6","55.2","29.97","326","3.9","10.8","0.00","0.00"
"13:59:57","82.3","64.2","54.5","29.97","318","3.5","10.4","0.00","0.00"
"14:04:56","82.1","63","52.5","29.97","342","6.3","15","0.00","0.00"
"14:09:57","81.9","62.1","51.3","29.97","290","5.1","10.8","0.00","0.00"
"14:14:59","81.8","62.4","52.1","29.97","306","3.2","7.2","0.00","0.00"
"14:19:56","82.2","63.1","52.4","29.96","315","4.3","15.6","0.00","0.00"
"14:24:56","82.6","62.5","50.7","29.96","291","4","10.8","0.00","0.00"
"14:29:57","82.6","62.2","50.3","29.96","308","4.7","16.1","0.00","0.00"
"14:34:58","82.5","62.3","50.5","29.96","292","5.1","15","0.00","0.00"
"14:39:56","82.8","64","53.2","29.96","335","3.4","10.8","0.00","0.00"
"14:44:57","83.1","63","50.8","29.96","334","3.8","12","0.00","0.00"
"14:49:57","83.1","61.6","48.5","29.95","311","5.5","13.2","0.00","0.00"
"14:54:58","82.7","62.1","50","29.95","305","4.1","9.6","0.00","0.00"
"14:59:58","82.8","62.5","50.4","29.95","310","4.3","10.8","0.00","0.00"
"15:04:58","83.1","63.2","51.3","29.95","339","4.5","9.6","0.00","0.00"
"15:09:59","83.2","63.1","50.7","29.95","324","5.3","10.8","0.00","0.00"
"15:14:57","83.3","63.3","51.1","29.95","311","3.5","9.6","0.00","0.00"
"15:19:58","83.3","62.7","49.9","29.95","309","4.6","19.6","0.00","0.00"
"15:24:59","83.4","62.3","49.1","29.95","289","5.1","13.2","0.00","0.00"
"15:29:55","83.4","62.9","50.2","29.95","284","3.5","12.7","0.00","0.00"
"15:34:44","83.5","63","50.1","29.94","279","3.4","8.4","0.00","0.00"
"15:39:58","83.6","62.1","48.5","29.94","278","4.8","10.8","0.00","0.00"
"15:44:59","83.4","61.7","47.9","29.94","312","4","12","0.00","0.00"
"15:49:56","83.5","63","50.3","29.94","248","2.8","11.5","0.00","0.00"
"15:54:56","83.9","62.9","49.4","29.94","303","3.2","8.4","0.00","0.00"
"15:59:57","84.1","63","49.1","29.94","313","3.2","7.2","0.00","0.00"
"16:04:57","84.2","62.3","47.8","29.94","310","4.5","10.8","0.00","0.00"
"16:09:57","84.2","63","49","29.94","340","1.5","9.2","0.00","0.00"
"16:14:56","84.4","62.5","48","29.94","268","2.9","7.2","0.00","0.00"
"16:19:56","84.5","63","48.7","29.94","278","2.4","6","0.00","0.00"
"16:24:57","84.9","63.4","48.7","29.94","324","3","15","0.00","0.00"
"16:29:58","84.8","62","46.5","29.94","305","4.7","12","0.00","0.00"
"16:34:59","84.3","62","47.2","29.94","308","3.9","12","0.00","0.00"
"16:39:57","84.3","62.8","48.5","29.94","333","4.1","14.4","0.00","0.00"
"16:44:58","84.3","61.6","46.5","29.94","327","5.9","15","0.00","0.00"
"16:49:58","84.3","62.9","48.8","29.94","330","3","8.4","0.00","0.00"
"16:54:58","84.1","61.3","46.2","29.94","301","4.6","10.8","0.00","0.00"
"16:59:58","83.8","61.4","46.9","29.95","299","4.1","12","0.00","0.00"
"17:04:58","83.9","61.8","47.6","29.95","322","2.4","8.4","0.00","0.00"
"17:09:58","83.9","62.1","48","29.95","315","3.4","9.6","0.00","0.00"
"17:14:57","83.7","62.2","48.5","29.95","313","3.9","9.2","0.00","0.00"
"17:19:57","83.5","61.7","47.9","29.95","271","3.7","8.4","0.00","0.00"
"17:24:58","83.2","61.2","47.5","29.95","253","2.5","8.1","0.00","0.00"
"17:29:59","83.2","62","48.9","29.95","299","3","8.4","0.00","0.00"
"17:34:56","83.3","62.4","49.5","29.95","0","1.8","6","0.00","0.00"
"17:39:58","83.4","62.1","48.7","29.95","330","3.5","8.4","0.00","0.00"
"17:44:59","83.1","61.7","48.5","29.95","288","2.6","6","0.00","0.00"
"17:49:56","82.8","61.2","48.2","29.95","336","3","9.6","0.00","0.00"
"17:54:57","82.5","60.6","47.7","29.95","282","3.1","9.2","0.00","0.00"
"17:59:58","81.9","60.7","48.8","29.95","297","2.5","7.2","0.00","0.00"
"18:04:58","81.3","60.8","49.7","29.95","262","2.2","4.8","0.00","0.00"
"18:09:58","81","60.6","50.2","29.95","295","2","6","0.00","0.00"
"18:14:57","80.7","60.5","50.3","29.96","309","2.3","6","0.00","0.00"
"18:19:57","80.5","61.2","51.8","29.96","302","1.6","5.8","0.00","0.00"
"18:24:58","80.3","61.8","53.4","29.96","302","1.6","3.6","0.00","0.00"
"18:29:55","80","62.3","54.7","29.96","302","1.6","3.6","0.00","0.00"
"18:33:58","79.8","62.6","55.8","29.96","302","1","3.6","0.00","0.00"
"18:39:59","79.5","62.8","56.8","29.96","302","0.2","1.2","0.00","0.00"
"18:44:57","79.1","63","57.9","29.96","302","0.5","2.4","0.00","0.00"
"18:49:57","78.7","62.7","58","29.96","302","1.3","3.6","0.00","0.00"
"18:54:58","78.3","62.5","58.5","29.96","302","0.6","2.4","0.00","0.00"
"18:59:58","77.9","62.4","59","29.97","302","0","0","0.00","0.00"
"19:04:53","77.5","62.7","60.5","29.97","302","0","0","0.00","0.00"
"19:09:57","76.6","63.3","63.7","29.97","302","0","0","0.00","0.00"
"19:14:59","75.3","63.4","66.4","29.97","302","0","0","0.00","0.00"
"19:19:59","74.4","63.2","68.1","29.97","302","0","0","0.00","0.00"
"19:24:59","73.7","63.1","69.5","29.97","302","0","0","0.00","0.00"
"19:29:59","73.1","63.1","71","29.97","302","0","0","0.00","0.00"
"19:34:59","72.4","62.9","72.1","29.97","302","0","0","0.00","0.00"
"19:39:57","71.7","62.9","73.6","29.97","302","0","0","0.00","0.00"
"19:44:57","71.2","62.6","74.2","29.97","302","0","0","0.00","0.00"
"19:49:57","70.8","62.6","75.2","29.97","302","0","0","0.00","0.00"
"19:54:57","70.3","62.5","76.4","29.97","302","0","0","0.00","0.00"
"19:59:57","69.8","62.4","77.5","29.97","302","0","0","0.00","0.00"
"20:04:57","69.4","62.5","78.8","29.97","302","0","0","0.00","0.00"
"20:09:56","69.2","62.4","79","29.97","302","0","0","0.00","0.00"
"20:14:58","69.1","62.5","79.4","29.97","302","0","0","0.00","0.00"
"20:19:58","68.9","62.5","80","29.97","302","0","0","0.00","0.00"
"20:24:58","68.7","62.3","80","29.97","302","0","0","0.00","0.00"
"20:29:58","68.4","62.3","81","29.99","302","0","0","0.00","0.00"
"20:34:58","68","62.3","81.8","29.99","302","0","0","0.00","0.00"
"20:39:56","67.7","62","82","29.99","302","0","0","0.00","0.00"
"20:44:56","67.5","62.1","82.8","29.99","302","0","0","0.00","0.00"
"20:49:56","67.3","62","83","29.98","302","0","0","0.00","0.00"
"20:54:56","67.1","61.8","83.1","29.98","302","0","0","0.00","0.00"
"20:59:57","67","62","84","29.99","302","0","0","0.00","0.00"
"21:04:56","66.9","61.9","84","29.99","302","0","0","0.00","0.00"
"21:09:59","66.8","61.8","84","29.99","302","0","0","0.00","0.00"
"21:14:57","66.6","61.6","84","29.99","302","0","0","0.00","0.00"
"21:19:57","66.3","61.6","84.8","29.99","302","0","0","0.00","0.00"
"21:24:57","65.9","61.3","85.3","29.99","302","0","0","0.00","0.00"
"21:29:57","65.6","61.3","86","29.99","302","0","0","0.00","0.00"
"21:34:58","65.4","61.1","86","29.99","302","0","0","0.00","0.00"
"21:39:56","65.2","61","86.3","29.99","302","0","0","0.00","0.00"
"21:44:56","65","61","87","29.99","302","0","0","0.00","0.00"
"21:49:56","64.8","61","87.6","29.99","302","0","0","0.00","0.00"
"21:54:56","64.7","61.1","88","29.99","302","0","0","0.00","0.00"
"21:59:56","64.7","61.4","89","29.99","302","1.5","2.4","0.00","0.00"
"22:04:59","64.7","61.4","89","29.99","302","1.1","2.4","0.00","0.00"
"22:09:58","64.6","61.1","88.3","29.99","302","0.6","2.4","0.00","0.00"
"22:14:59","64.6","61.3","89","29.99","302","1.1","2.4","0.00","0.00"
"22:19:59","64.5","61.1","88.7","29.99","302","0.7","2.4","0.00","0.00"
"22:24:59","64.4","60.8","88","29.99","302","0.2","2.4","0.00","0.00"
"22:29:56","64.3","60.7","88","29.99","302","0.1","1.2","0.00","0.00"
"22:34:56","64.2","60.6","88","29.99","302","0","1.2","0.00","0.00"
"22:39:57","64","60.4","88","29.99","302","0","0","0.00","0.00"
"22:44:57","63.8","60.2","88","30.00","302","0","1.2","0.00","0.00"
"22:49:57","63.7","60.4","89","30.00","302","0.1","1.2","0.00","0.00"
"22:54:57","63.6","60.3","89","30.00","302","0","0","0.00","0.00"
"22:59:58","63.4","60.3","89.5","30.00","302","0.5","1.2","0.00","0.00"
"23:04:56","63.3","60.3","90","30.00","302","0.3","1.2","0.00","0.00"
"23:09:56","63.2","60.2","90","30.00","302","0","0","0.00","0.00"
"23:14:58","63.1","60","89.6","30.00","302","0","0","0.00","0.00"
"23:19:57","62.9","59.9","90","30.00","302","0","1.2","0.00","0.00"
"23:24:58","62.7","59.7","90","30.00","302","0","0","0.00","0.00"
"23:29:58","62.5","59.5","90","30.00","302","0","0","0.00","0.00"
"23:34:58","62.4","59.4","90.1","30.00","302","0","1.2","0.00","0.00"
"23:39:59","62.3","59.6","91","30.00","302","0.2","1.2","0.00","0.00"
"23:44:59","62.2","59.5","91","30.00","302","0.3","1.2","0.00","0.00"
"23:49:56","62.2","59.5","91","30.00","302","0","1.2","0.00","0.00"
"23:54:56","62.2","59.5","91","30.00","302","0.3","1.2","0.00","0.00"
